sat.trackr.live / text

‹ back to catalog

SINOD-D 3

NORAD 40977 · 2015-058P

PAYLOAD ACTIVE UNKNOWN

§ Identity

Operator
Country
US
Launch date
2015-10-08
Launch site
AFWTR
Launch vehicle
Mass (kg)
RCS (m²)

Purposes: tech_demo

External: N2YO · Heavens-Above · Gunter

§ Orbital elements

Epoch: 2026-09-13T01:07:29.897184Z

Period
96.35 min
Inclination
64.7743°
Eccentricity
0.0126513
Mean motion
14.94557358 rev/d
Perigee alt
495.7 km
Apogee alt
671.8 km
Semi-major
6,961.9 km
B*
1.5492e-4
RAAN
1.3304°
Arg perigee
24.7008°
Mean anomaly
336.0091°
Rev number
12,788

§ Raw data

SINOD-D 31 40977U 15058P   26256.04687381  .00001783  00000+0  15492-3 0  99962 40977  64.7743   1.3304 0126513  24.7008 336.0091 14.94557358127889

JSON: /api/v1/satellites/40977 · /tle

For live sub-satellite position, see the globe view (requires WebGL).

§ Visibility from observer

Set your observer location to see the next 7 days of passes ≥ 10°. The values pass through the URL so the page stays shareable.

No JS? Fill the form by hand. The geolocation button needs JavaScript.